Location: Kaarina
(60.4167°N, 22.4167°E)
Time: 05:10:45
(UTC+03:00)

Cosmos 1500 - Pass Details

Date: 24 August 2019
Orbit: 500 x 521 km, 82.5° (Epoch: 17 October)

Event Time Altitude Azimuth Distance (km) Brightness Sun altitude
Rises 21:57:46 0° 180° (S) 2,642 6.4 -6.9°
Reaches altitude 10° 21:59:55 10° 176° (S) 1,757 5.5 -7.1°
Maximum altitude 22:03:42 57° 98° (E) 623 3.3 -7.5°
Drops below altitude 10° 22:07:30 10° 20° (NNE) 1,762 6.2 -7.9°
Sets 22:09:39 0° 17° (NNE) 2,650 7.1 -8.1°
